カタログに戻る

COSMOS 2352

運用中軍事PO
NORAD 25363·PAYLOAD·🇷🇺 Russia

打ち上げ Jun 15, 1998 から Plesetsk Cosmodrome

Loading…

次のパス (今後24時間)

TLE

最新Source: Space-Track

元期: Sep 14, 2026, 14:52 UTC

1 25363U 98036A   26257.61967375 -.00000000  00000-0 -96146-4 0  9993
2 25363  82.5924 310.3631 0353430  76.5038  74.6962 12.20138489258204

AllMySatでCOSMOS 2352をリアルタイム追跡

Download on the App Store